Tracking 29511 objects as of 17-Sep-2024
HD Live streaming from Space Station
objects crossing your sky now

STARLINK-30473

Track STARLINK-30473 now!
10-day predictions
STARLINK-30473 is classified as:


NORAD ID: 57893
Int'l Code: 2023-146C
Perigee: 565.4 km
Apogee: 566.9 km
Inclination: 43.0 °
Period: 95.8 minutes
Semi major axis: 6937 km
RCS: Unknown
Launch date: September 20, 2023
Source: United States (US)
Launch site: AIR FORCE EASTERN TEST RANGE (AFETR)
Your satellite tracking list
Your tracking list is empty




NASA's NSSDC Master Catalog

Two Line Element Set (TLE):
1 57893U 23146C   24260.66334027  .00011689  00000-0  87841-3 0  9999
2 57893  43.0025   2.1226 0001054 294.3962  65.6770 15.02559220 55985
Source of the keplerian elements: AFSPC